SB KEPS @ AMSAT $ORB13234.O Orbital Elements 13234.OSCAR
HR AMSAT ORBITAL ELEMENTS FOR OSCAR SATELLITES FROM WA5QGD FORT WORTH,TX August 22, 2013 BID: ORB13234.O TO ALL RADIO AMATEURS BT
Satellite: AO-07 Catalog number: 07530 Epoch time: 13234.52746207 Element set: 758 Inclination: 101.4381 deg RA of node: 221.6384 deg Eccentricity: 0.0012050 Arg of perigee: 156.3074 deg Mean anomaly: 000.6801 deg Mean motion: 12.53597754 rev/day Decay rate: -3.0e-07 rev/day^2 Epoch rev: 77409 Checksum: 271
Satellite: FO-29 Catalog number: 24278 Epoch time: 13234.16889424 Element set: 182 Inclination: 098.5489 deg RA of node: 283.8877 deg Eccentricity: 0.0350212 Arg of perigee: 353.3446 deg Mean anomaly: 037.4946 deg Mean motion: 13.53005014 rev/day Decay rate: -3.7e-07 rev/day^2 Epoch rev: 84023 Checksum: 321
Satellite: SO-33 Catalog number: 25509 Epoch time: 13233.92681387 Element set: 566 Inclination: 031.4323 deg RA of node: 055.3966 deg Eccentricity: 0.0350892 Arg of perigee: 013.4384 deg Mean anomaly: 102.3220 deg Mean motion: 14.29108407 rev/day Decay rate: 3.03e-06 rev/day^2 Epoch rev: 77430 Checksum: 283
Satellite: RS-22 Catalog number: 27939 Epoch time: 13234.79733654 Element set: 699 Inclination: 097.7988 deg RA of node: 059.1733 deg Eccentricity: 0.0013175 Arg of perigee: 341.2340 deg Mean anomaly: 018.8382 deg Mean motion: 14.64543342 rev/day Decay rate: 4.19e-06 rev/day^2 Epoch rev: 52904 Checksum: 335
Satellite: VO-52 Catalog number: 28650 Epoch time: 13234.21533955 Element set: 505 Inclination: 097.5678 deg RA of node: 249.4320 deg Eccentricity: 0.0027015 Arg of perigee: 065.9231 deg Mean anomaly: 069.5249 deg Mean motion: 14.84066118 rev/day Decay rate: 1.345e-05 rev/day^2 Epoch rev: 44887 Checksum: 318
Satellite: HO-68 Catalog number: 36122 Epoch time: 13234.70797604 Element set: 837 Inclination: 100.3010 deg RA of node: 290.0617 deg Eccentricity: 0.0007347 Arg of perigee: 199.8962 deg Mean anomaly: 160.1863 deg Mean motion: 13.16306376 rev/day Decay rate: -4.4e-07 rev/day^2 Epoch rev: 17716 Checksum: 297
/EX SB KEPS @ AMSAT $ORB13234.D Orbital Elements 13234.MICROS
HR AMSAT ORBITAL ELEMENTS FOR THE MICROSATS FROM WA5QGD FORT WORTH,TX August 22, 2013 BID: ORB13234.D TO ALL RADIO AMATEURS BT
Satellite: UO-11 Catalog number: 14781 Epoch time: 13234.72721759 Element set: 264 Inclination: 097.8964 deg RA of node: 295.0682 deg Eccentricity: 0.0010131 Arg of perigee: 077.5267 deg Mean anomaly: 282.7079 deg Mean motion: 14.80984176 rev/day Decay rate: 4.81e-06 rev/day^2 Epoch rev: 58378 Checksum: 340
Satellite: AO-16 Catalog number: 20439 Epoch time: 13233.81924138 Element set: 822 Inclination: 098.4738 deg RA of node: 172.3331 deg Eccentricity: 0.0010078 Arg of perigee: 329.7179 deg Mean anomaly: 064.0716 deg Mean motion: 14.32197807 rev/day Decay rate: 9.0e-07 rev/day^2 Epoch rev: 23163 Checksum: 299
Satellite: LO-19 Catalog number: 20442 Epoch time: 13233.91909975 Element set: 758 Inclination: 098.4435 deg RA of node: 174.0072 deg Eccentricity: 0.0010891 Arg of perigee: 318.3744 deg Mean anomaly: 081.6340 deg Mean motion: 14.32407379 rev/day Decay rate: 9.4e-07 rev/day^2 Epoch rev: 23184 Checksum: 310
Satellite: AO-27 Catalog number: 22825 Epoch time: 13234.76004522 Element set: 461 Inclination: 098.6222 deg RA of node: 178.0948 deg Eccentricity: 0.0009582 Arg of perigee: 094.2797 deg Mean anomaly: 296.1216 deg Mean motion: 14.29583564 rev/day Decay rate: 9.2e-07 rev/day^2 Epoch rev: 3814 Checksum: 318
Satellite: IO-26 Catalog number: 22826 Epoch time: 13234.81708814 Element set: 217 Inclination: 098.6164 deg RA of node: 178.4245 deg Eccentricity: 0.0010117 Arg of perigee: 088.0166 deg Mean anomaly: 305.7097 deg Mean motion: 14.29869931 rev/day Decay rate: 9.8e-07 rev/day^2 Epoch rev: 3828 Checksum: 324
Satellite: GO-32 Catalog number: 25397 Epoch time: 13234.69857045 Element set: 143 Inclination: 098.4226 deg RA of node: 199.5870 deg Eccentricity: 0.0002480 Arg of perigee: 102.6914 deg Mean anomaly: 357.7599 deg Mean motion: 14.23354739 rev/day Decay rate: 5.1e-07 rev/day^2 Epoch rev: 78540 Checksum: 330
Satellite: NO-44 Catalog number: 26931 Epoch time: 13233.79839794 Element set: 400 Inclination: 067.0512 deg RA of node: 090.3700 deg Eccentricity: 0.0007788 Arg of perigee: 271.2054 deg Mean anomaly: 214.2521 deg Mean motion: 14.29950867 rev/day Decay rate: 3.9e-07 rev/day^2 Epoch rev: 62080 Checksum: 299
Satellite: SO-50 Catalog number: 27607 Epoch time: 13233.71195541 Element set: 147 Inclination: 064.5570 deg RA of node: 064.6451 deg Eccentricity: 0.0037827 Arg of perigee: 140.5768 deg Mean anomaly: 343.8206 deg Mean motion: 14.73037844 rev/day Decay rate: 5.72e-06 rev/day^2 Epoch rev: 57336 Checksum: 310
Satellite: CO-55 Catalog number: 27844 Epoch time: 13234.80471075 Element set: 723 Inclination: 098.7026 deg RA of node: 242.9115 deg Eccentricity: 0.0010602 Arg of perigee: 062.3495 deg Mean anomaly: 015.9726 deg Mean motion: 14.21257565 rev/day Decay rate: 1.92e-06 rev/day^2 Epoch rev: 52619 Checksum: 299
Satellite: CO-57 Catalog number: 27848 Epoch time: 13234.74950512 Element set: 667 Inclination: 098.7113 deg RA of node: 242.4045 deg Eccentricity: 0.0010618 Arg of perigee: 067.8138 deg Mean anomaly: 019.8121 deg Mean motion: 14.20978703 rev/day Decay rate: 1.46e-06 rev/day^2 Epoch rev: 52611 Checksum: 304
Satellite: AO-51 Catalog number: 28375 Epoch time: 13234.76923014 Element set: 635 Inclination: 098.2077 deg RA of node: 187.5794 deg Eccentricity: 0.0083851 Arg of perigee: 173.8491 deg Mean anomaly: 273.9027 deg Mean motion: 14.41150137 rev/day Decay rate: 1.40e-06 rev/day^2 Epoch rev: 48092 Checksum: 317
Satellite: CP3 Catalog number: 31129 Epoch time: 13233.71132634 Element set: 533 Inclination: 097.9034 deg RA of node: 222.6705 deg Eccentricity: 0.0099232 Arg of perigee: 222.7590 deg Mean anomaly: 187.8240 deg Mean motion: 14.53772961 rev/day Decay rate: 4.70e-06 rev/day^2 Epoch rev: 33651 Checksum: 290
Satellite: CO-65 Catalog number: 32785 Epoch time: 13234.17975556 Element set: 717 Inclination: 097.7450 deg RA of node: 289.8169 deg Eccentricity: 0.0015762 Arg of perigee: 092.8587 deg Mean anomaly: 300.7972 deg Mean motion: 14.84052296 rev/day Decay rate: 1.161e-05 rev/day^2 Epoch rev: 28766 Checksum: 360
Satellite: PRISM Catalog number: 33493 Epoch time: 13234.86823025 Element set: 105 Inclination: 098.2245 deg RA of node: 034.0426 deg Eccentricity: 0.0017506 Arg of perigee: 340.3387 deg Mean anomaly: 019.7157 deg Mean motion: 14.86343622 rev/day Decay rate: 2.322e-05 rev/day^2 Epoch rev: 24782 Checksum: 280
Satellite: SOHLA-1 Catalog number: 33496 Epoch time: 13234.14206207 Element set: 127 Inclination: 098.1415 deg RA of node: 350.0125 deg Eccentricity: 0.0007898 Arg of perigee: 111.7576 deg Mean anomaly: 303.3756 deg Mean motion: 14.70350066 rev/day Decay rate: 3.88e-06 rev/day^2 Epoch rev: 24556 Checksum: 285
Satellite: SO-67 Catalog number: 35870 Epoch time: 13234.91602200 Element set: 355 Inclination: 097.1887 deg RA of node: 261.2959 deg Eccentricity: 0.0003748 Arg of perigee: 085.9199 deg Mean anomaly: 317.5942 deg Mean motion: 15.27769360 rev/day Decay rate: 4.842e-05 rev/day^2 Epoch rev: 21844 Checksum: 342
Satellite: TISAT-1 Catalog number: 36799 Epoch time: 13234.82703382 Element set: 375 Inclination: 098.0333 deg RA of node: 319.9175 deg Eccentricity: 0.0013581 Arg of perigee: 207.2444 deg Mean anomaly: 152.8059 deg Mean motion: 14.83562993 rev/day Decay rate: 1.774e-05 rev/day^2 Epoch rev: 16845 Checksum: 330
Satellite: STUDSAT Catalog number: 36801 Epoch time: 13234.18131694 Element set: 670 Inclination: 098.0442 deg RA of node: 323.0461 deg Eccentricity: 0.0011689 Arg of perigee: 186.0649 deg Mean anomaly: 230.4902 deg Mean motion: 14.89129898 rev/day Decay rate: 8.051e-05 rev/day^2 Epoch rev: 16853 Checksum: 306
Satellite: ALMASAT-1 Catalog number: 38078 Epoch time: 13234.88532875 Element set: 547 Inclination: 069.4676 deg RA of node: 045.8696 deg Eccentricity: 0.0680842 Arg of perigee: 061.2819 deg Mean anomaly: 305.5187 deg Mean motion: 14.27929904 rev/day Decay rate: 2.3639e-04 rev/day^2 Epoch rev: 7875 Checksum: 367
Satellite: XATCOBEO Catalog number: 38082 Epoch time: 13234.76557255 Element set: 427 Inclination: 069.4727 deg RA of node: 013.1802 deg Eccentricity: 0.0538979 Arg of perigee: 043.2795 deg Mean anomaly: 320.9548 deg Mean motion: 14.64468853 rev/day Decay rate: 6.7078e-04 rev/day^2 Epoch rev: 7964 Checksum: 351
Satellite: SOMP Catalog number: 39135 Epoch time: 13234.72909125 Element set: 263 Inclination: 064.8782 deg RA of node: 359.5579 deg Eccentricity: 0.0005110 Arg of perigee: 212.7846 deg Mean anomaly: 147.3432 deg Mean motion: 15.00692102 rev/day Decay rate: 9.921e-05 rev/day^2 Epoch rev: 1881 Checksum: 292
Satellite: CUBEBUG-1 Catalog number: 39153 Epoch time: 13234.88754249 Element set: 336 Inclination: 098.0707 deg RA of node: 310.6273 deg Eccentricity: 0.0017141 Arg of perigee: 226.8695 deg Mean anomaly: 133.1075 deg Mean motion: 14.76559517 rev/day Decay rate: 8.31e-06 rev/day^2 Epoch rev: 1752 Checksum: 306
Satellite: ESTCUBE-1 Catalog number: 39161 Epoch time: 13234.71066807 Element set: 298 Inclination: 098.1256 deg RA of node: 312.6109 deg Eccentricity: 0.0008819 Arg of perigee: 262.9498 deg Mean anomaly: 097.0711 deg Mean motion: 14.69070131 rev/day Decay rate: 7.35e-06 rev/day^2 Epoch rev: 1576 Checksum: 308
/EX SB KEPS @ AMSAT $ORB13234.W Orbital Elements 13234.WEATHER
HR AMSAT ORBITAL ELEMENTS FOR WEATHER SATELLITES FROM WA5QGD FORT WORTH,TX August 22, 2013 BID: ORB13234.W TO ALL RADIO AMATEURS BT
Satellite: NOAA-10 Catalog number: 16969 Epoch time: 13234.13432536 Element set: 469 Inclination: 098.5425 deg RA of node: 260.5259 deg Eccentricity: 0.0013020 Arg of perigee: 057.0259 deg Mean anomaly: 344.2646 deg Mean motion: 14.27659124 rev/day Decay rate: 5.8e-07 rev/day^2 Epoch rev: 40135 Checksum: 294
